Time,TemperatureF,DewpointF,PressureIn,WindDirection,WindDirectionDegrees,WindSpeedMPH,WindSpeedGustMPH,Humidity,HourlyPrecipIn,Conditions,Clouds,dailyrainin,SolarRadiationWatts/m^2,SoftwareType,DateUTC
2013-01-31 00:08:00,62.0,59.0,29.49,SSW,208,8.0,22.0,89,0.40,,,0.01,0,weatherlink.com 1.10,2013-01-31 05:08:00,
2013-01-31 00:23:00,59.8,56.0,29.51,SSW,209,6.0,22.0,86,0.40,,,0.01,0,weatherlink.com 1.10,2013-01-31 05:23:00,
2013-01-31 00:38:00,58.7,54.0,29.51,West,280,13.0,24.0,83,0.13,,,0.01,0,weatherlink.com 1.10,2013-01-31 05:38:00,
2013-01-31 00:53:00,56.4,53.0,29.52,SW,231,12.0,17.0,87,0.04,,,0.03,0,weatherlink.com 1.10,2013-01-31 05:53:00,
2013-01-31 01:08:00,54.9,52.0,29.51,SSW,192,3.0,21.0,90,0.05,,,0.06,0,weatherlink.com 1.10,2013-01-31 06:08:00,
2013-01-31 01:23:00,54.2,51.0,29.52,South,186,9.0,15.0,90,0.08,,,0.09,0,weatherlink.com 1.10,2013-01-31 06:23:00,
2013-01-31 01:38:00,53.3,51.0,29.52,South,186,5.0,15.0,90,0.10,,,0.11,0,weatherlink.com 1.10,2013-01-31 06:38:00,
2013-01-31 01:53:00,52.7,50.0,29.51,SSW,210,7.0,11.0,90,0.08,,,0.11,0,weatherlink.com 1.10,2013-01-31 06:53:00,
2013-01-31 02:08:00,52.6,50.0,29.52,SW,223,5.0,17.0,89,0.05,,,0.11,0,weatherlink.com 1.10,2013-01-31 07:08:00,
2013-01-31 02:23:00,52.4,49.0,29.53,SSW,203,3.0,17.0,87,0.02,,,0.11,0,weatherlink.com 1.10,2013-01-31 07:23:00,
2013-01-31 02:38:00,52.3,48.0,29.53,SW,222,9.0,16.0,84,0.00,,,0.11,0,weatherlink.com 1.10,2013-01-31 07:38:00,
2013-01-31 02:53:00,51.9,47.0,29.53,SSW,200,7.0,15.0,84,0.00,,,0.11,0,weatherlink.com 1.10,2013-01-31 07:53:00,
2013-01-31 03:08:00,51.6,47.0,29.53,SW,228,11.0,13.0,83,0.00,,,0.11,0,weatherlink.com 1.10,2013-01-31 08:08:00,
2013-01-31 03:23:00,51.6,46.0,29.55,WSW,254,10.0,18.0,82,0.00,,,0.11,0,weatherlink.com 1.10,2013-01-31 08:23:00,
2013-01-31 03:38:00,51.6,46.0,29.55,WSW,240,12.0,18.0,82,0.00,,,0.11,0,weatherlink.com 1.10,2013-01-31 08:38:00,
2013-01-31 03:53:00,51.6,46.0,29.55,SW,236,12.0,14.0,82,0.00,,,0.11,0,weatherlink.com 1.10,2013-01-31 08:53:00,
2013-01-31 04:09:00,51.7,46.0,29.56,SW,223,4.0,16.0,81,0.00,,,0.11,0,weatherlink.com 1.10,2013-01-31 09:09:00,
2013-01-31 04:24:00,51.7,46.0,29.58,SW,215,6.0,20.0,80,0.00,,,0.11,0,weatherlink.com 1.10,2013-01-31 09:24:00,
2013-01-31 04:39:00,51.5,46.0,29.58,West,263,5.0,17.0,80,0.00,,,0.11,0,weatherlink.com 1.10,2013-01-31 09:39:00,
2013-01-31 04:54:00,51.4,45.0,29.59,WSW,242,5.0,15.0,80,0.00,,,0.11,0,weatherlink.com 1.10,2013-01-31 09:54:00,
2013-01-31 05:09:00,50.0,44.0,29.61,West,274,7.0,25.0,80,0.01,,,0.12,0,weatherlink.com 1.10,2013-01-31 10:09:00,
2013-01-31 05:24:00,49.8,43.0,29.62,WSW,237,6.0,17.0,77,0.01,,,0.12,0,weatherlink.com 1.10,2013-01-31 10:24:00,
2013-01-31 05:39:00,49.7,42.0,29.63,SSW,208,12.0,16.0,74,0.01,,,0.12,0,weatherlink.com 1.10,2013-01-31 10:39:00,
2013-01-31 05:54:00,49.4,41.0,29.64,WSW,250,6.0,12.0,74,0.01,,,0.12,0,weatherlink.com 1.10,2013-01-31 10:54:00,
2013-01-31 06:09:00,49.2,41.0,29.65,WSW,252,3.0,13.0,73,0.00,,,0.12,0,weatherlink.com 1.10,2013-01-31 11:09:00,
2013-01-31 06:24:00,48.8,40.0,29.66,SSW,200,10.0,16.0,71,0.00,,,0.12,0,weatherlink.com 1.10,2013-01-31 11:24:00,
2013-01-31 06:39:00,49.1,38.0,29.68,WNW,283,6.0,13.0,67,0.00,,,0.12,0,weatherlink.com 1.10,2013-01-31 11:39:00,
2013-01-31 06:54:00,48.7,37.0,29.69,NW,315,2.0,13.0,64,0.00,,,0.12,0,weatherlink.com 1.10,2013-01-31 11:54:00,
2013-01-31 07:09:00,47.7,34.0,29.71,WNW,288,5.0,16.0,60,0.00,,,0.12,0,weatherlink.com 1.10,2013-01-31 12:09:00,
2013-01-31 07:24:00,46.9,31.0,29.72,WNW,283,6.0,18.0,55,0.00,,,0.12,7,weatherlink.com 1.10,2013-01-31 12:24:00,
2013-01-31 07:39:00,46.2,30.0,29.74,West,275,0.0,16.0,53,0.00,,,0.12,12,weatherlink.com 1.10,2013-01-31 12:39:00,
2013-01-31 07:54:00,45.6,30.0,29.76,West,267,5.0,15.0,55,0.00,,,0.12,21,weatherlink.com 1.10,2013-01-31 12:54:00,
2013-01-31 08:09:00,45.6,29.0,29.78,West,265,3.0,17.0,52,0.00,,,0.12,91,weatherlink.com 1.10,2013-01-31 13:09:00,
2013-01-31 08:24:00,45.4,29.0,29.79,SW,235,9.0,18.0,53,0.00,,,0.12,146,weatherlink.com 1.10,2013-01-31 13:24:00,
2013-01-31 08:40:00,45.2,30.0,29.80,WSW,258,6.0,14.0,55,0.00,,,0.12,197,weatherlink.com 1.10,2013-01-31 13:40:00,
2013-01-31 08:55:00,45.1,28.0,29.82,SW,234,10.0,21.0,51,0.00,,,0.12,239,weatherlink.com 1.10,2013-01-31 13:55:00,
2013-01-31 09:10:00,45.1,29.0,29.83,NNW,337,10.0,22.0,53,0.00,,,0.12,283,weatherlink.com 1.10,2013-01-31 14:10:00,
2013-01-31 09:25:00,45.0,27.0,29.84,West,263,9.0,20.0,49,0.00,,,0.12,325,weatherlink.com 1.10,2013-01-31 14:25:00,
2013-01-31 09:40:00,44.9,27.0,29.85,NW,318,3.0,22.0,49,0.00,,,0.12,369,weatherlink.com 1.10,2013-01-31 14:40:00,
2013-01-31 09:55:00,45.5,26.0,29.86,West,272,7.0,17.0,47,0.00,,,0.12,410,weatherlink.com 1.10,2013-01-31 14:55:00,
2013-01-31 10:10:00,46.0,26.0,29.86,WSW,238,10.0,14.0,46,0.00,,,0.12,445,weatherlink.com 1.10,2013-01-31 15:10:00,
2013-01-31 10:25:00,45.8,27.0,29.88,West,263,13.0,16.0,48,0.00,,,0.12,480,weatherlink.com 1.10,2013-01-31 15:25:00,
2013-01-31 10:40:00,46.3,26.0,29.87,SW,231,18.0,18.0,45,0.00,,,0.12,512,weatherlink.com 1.10,2013-01-31 15:40:00,
2013-01-31 10:55:00,46.5,24.0,29.88,SW,219,9.0,14.0,42,0.00,,,0.12,538,weatherlink.com 1.10,2013-01-31 15:55:00,
2013-01-31 11:10:00,46.3,24.0,29.88,West,263,6.0,17.0,41,0.00,,,0.12,561,weatherlink.com 1.10,2013-01-31 16:10:00,
2013-01-31 11:25:00,46.8,22.0,29.88,WNW,296,5.0,16.0,37,0.00,,,0.12,578,weatherlink.com 1.10,2013-01-31 16:25:00,
2013-01-31 11:40:00,46.6,23.0,29.88,WSW,250,3.0,17.0,39,0.00,,,0.12,594,weatherlink.com 1.10,2013-01-31 16:40:00,
2013-01-31 11:55:00,47.7,25.0,29.88,WNW,290,3.0,14.0,41,0.00,,,0.12,605,weatherlink.com 1.10,2013-01-31 16:55:00,
2013-01-31 12:10:00,48.6,25.0,29.87,West,275,1.0,13.0,40,0.00,,,0.12,612,weatherlink.com 1.10,2013-01-31 17:10:00,
2013-01-31 12:25:00,48.1,25.0,29.87,WSW,244,7.0,15.0,40,0.00,,,0.12,617,weatherlink.com 1.10,2013-01-31 17:25:00,
2013-01-31 12:40:00,48.5,24.0,29.87,West,275,8.0,14.0,39,0.00,,,0.12,617,weatherlink.com 1.10,2013-01-31 17:40:00,
2013-01-31 12:55:00,49.4,25.0,29.86,West,272,9.0,14.0,39,0.00,,,0.12,613,weatherlink.com 1.10,2013-01-31 17:55:00,
2013-01-31 13:10:00,48.5,24.0,29.86,WSW,258,8.0,22.0,38,0.00,,,0.12,406,weatherlink.com 1.10,2013-01-31 18:10:00,
2013-01-31 13:25:00,48.7,24.0,29.86,WSW,254,14.0,17.0,38,0.00,,,0.12,165,weatherlink.com 1.10,2013-01-31 18:25:00,
2013-01-31 13:40:00,48.7,22.0,29.87,SW,222,11.0,20.0,35,0.00,,,0.12,329,weatherlink.com 1.10,2013-01-31 18:40:00,
2013-01-31 13:56:00,48.8,21.0,29.87,WSW,252,14.0,20.0,34,0.00,,,0.12,98,weatherlink.com 1.10,2013-01-31 18:56:00,
2013-01-31 14:11:00,48.8,21.0,29.87,West,272,6.0,15.0,34,0.00,,,0.12,171,weatherlink.com 1.10,2013-01-31 19:11:00,
2013-01-31 14:26:00,49.1,22.0,29.88,SW,226,4.0,13.0,35,0.00,,,0.12,294,weatherlink.com 1.10,2013-01-31 19:26:00,
2013-01-31 14:41:00,49.3,22.0,29.88,SW,236,13.0,16.0,34,0.00,,,0.12,376,weatherlink.com 1.10,2013-01-31 19:41:00,
2013-01-31 14:56:00,49.5,23.0,29.89,West,271,7.0,15.0,36,0.00,,,0.12,63,weatherlink.com 1.10,2013-01-31 19:56:00,
2013-01-31 15:11:00,49.4,23.0,29.89,WSW,257,4.0,18.0,35,0.00,,,0.12,243,weatherlink.com 1.10,2013-01-31 20:11:00,
2013-01-31 15:26:00,49.4,22.0,29.90,West,271,8.0,22.0,34,0.00,,,0.12,369,weatherlink.com 1.10,2013-01-31 20:26:00,
2013-01-31 15:41:00,49.7,24.0,29.90,SSW,202,5.0,12.0,36,0.00,,,0.12,220,weatherlink.com 1.10,2013-01-31 20:41:00,
2013-01-31 15:56:00,49.4,21.0,29.91,WNW,287,6.0,18.0,33,0.00,,,0.12,155,weatherlink.com 1.10,2013-01-31 20:56:00,
2013-01-31 16:11:00,49.4,21.0,29.92,SSW,205,8.0,13.0,33,0.00,,,0.12,186,weatherlink.com 1.10,2013-01-31 21:11:00,
2013-01-31 16:26:00,49.5,22.0,29.93,West,281,6.0,13.0,34,0.00,,,0.12,197,weatherlink.com 1.10,2013-01-31 21:26:00,
2013-01-31 16:41:00,49.1,23.0,29.93,WSW,239,4.0,10.0,36,0.00,,,0.12,135,weatherlink.com 1.10,2013-01-31 21:41:00,
2013-01-31 16:56:00,48.5,22.0,29.94,WNW,285,1.0,12.0,36,0.00,,,0.12,84,weatherlink.com 1.10,2013-01-31 21:56:00,
2013-01-31 17:11:00,47.6,23.0,29.94,WNW,290,9.0,13.0,38,0.00,,,0.12,19,weatherlink.com 1.10,2013-01-31 22:11:00,
2013-01-31 17:26:00,47.0,22.0,29.95,WSW,248,5.0,11.0,37,0.00,,,0.12,12,weatherlink.com 1.10,2013-01-31 22:26:00,
2013-01-31 17:41:00,46.4,22.0,29.95,West,261,3.0,6.0,38,0.00,,,0.12,5,weatherlink.com 1.10,2013-01-31 22:41:00,
2013-01-31 17:56:00,46.0,23.0,29.96,WSW,250,4.0,9.0,40,0.00,,,0.12,0,weatherlink.com 1.10,2013-01-31 22:56:00,
2013-01-31 18:11:00,45.4,22.0,29.97,WSW,243,1.0,7.0,40,0.00,,,0.12,0,weatherlink.com 1.10,2013-01-31 23:11:00,
2013-01-31 18:26:00,45.0,22.0,29.98,SW,236,4.0,5.0,41,0.00,,,0.12,0,weatherlink.com 1.10,2013-01-31 23:26:00,
2013-01-31 18:41:00,44.8,23.0,29.99,West,261,4.0,9.0,42,0.00,,,0.12,0,weatherlink.com 1.10,2013-01-31 23:41:00,
2013-01-31 19:11:00,44.1,22.0,30.00,West,260,2.0,7.0,42,0.00,,,0.12,0,weatherlink.com 1.10,2013-02-01 00:11:00,
2013-01-31 19:26:00,43.6,23.0,30.01,West,280,1.0,6.0,44,0.00,,,0.12,0,weatherlink.com 1.10,2013-02-01 00:26:00,
2013-01-31 19:41:00,43.0,23.0,30.02,SW,231,0.0,4.0,45,0.00,,,0.12,0,weatherlink.com 1.10,2013-02-01 00:41:00,
2013-01-31 19:56:00,42.5,23.0,30.02,WSW,239,0.0,5.0,46,0.00,,,0.12,0,weatherlink.com 1.10,2013-02-01 00:56:00,
2013-01-31 20:11:00,42.1,23.0,30.02,WSW,246,2.0,4.0,46,0.00,,,0.12,0,weatherlink.com 1.10,2013-02-01 01:11:00,
2013-01-31 20:26:00,41.7,23.0,30.03,West,261,0.0,3.0,48,0.00,,,0.12,0,weatherlink.com 1.10,2013-02-01 01:26:00,
2013-01-31 20:41:00,40.2,25.0,30.03,West,261,0.0,0.0,55,0.00,,,0.12,0,weatherlink.com 1.10,2013-02-01 01:41:00,
2013-01-31 20:56:00,39.1,25.0,30.02,West,261,0.0,1.0,57,0.00,,,0.12,0,weatherlink.com 1.10,2013-02-01 01:56:00,
2013-01-31 21:11:00,37.8,25.0,30.03,West,261,0.0,0.0,61,0.00,,,0.12,0,weatherlink.com 1.10,2013-02-01 02:11:00,
2013-01-31 21:26:00,36.8,27.0,30.03,West,261,0.0,0.0,68,0.00,,,0.12,0,weatherlink.com 1.10,2013-02-01 02:26:00,
2013-01-31 21:42:00,35.6,26.0,30.03,West,261,0.0,1.0,69,0.00,,,0.12,0,weatherlink.com 1.10,2013-02-01 02:42:00,
2013-01-31 21:57:00,34.7,26.0,30.02,West,261,0.0,0.0,70,0.00,,,0.12,0,weatherlink.com 1.10,2013-02-01 02:57:00,
2013-01-31 22:12:00,34.2,26.0,30.02,West,261,0.0,0.0,72,0.00,,,0.12,0,weatherlink.com 1.10,2013-02-01 03:12:00,
2013-01-31 22:27:00,33.7,27.0,30.03,West,261,0.0,0.0,75,0.00,,,0.12,0,weatherlink.com 1.10,2013-02-01 03:27:00,
2013-01-31 22:42:00,33.1,27.0,30.03,West,261,0.0,0.0,77,0.00,,,0.12,0,weatherlink.com 1.10,2013-02-01 03:42:00,
2013-01-31 22:57:00,32.9,28.0,30.03,West,261,0.0,0.0,81,0.00,,,0.12,0,weatherlink.com 1.10,2013-02-01 03:57:00,
2013-01-31 23:12:00,32.5,27.0,30.04,West,261,0.0,0.0,80,0.00,,,0.12,0,weatherlink.com 1.10,2013-02-01 04:12:00,
2013-01-31 23:27:00,32.2,27.0,30.04,West,261,0.0,1.0,82,0.00,,,0.12,0,weatherlink.com 1.10,2013-02-01 04:27:00,
2013-01-31 23:42:00,34.2,25.0,30.04,SW,215,0.0,2.0,69,0.00,,,0.12,0,weatherlink.com 1.10,2013-02-01 04:42:00,
2013-01-31 23:57:00,35.7,25.0,30.04,South,170,0.0,3.0,64,0.00,,,0.12,0,weatherlink.com 1.10,2013-02-01 04:57:00,